Location: Greenwich
(51.4790°N, 0.0090°E)
Time: 14:26:24
(UTC+01:00)

Altair - Pass Details

Date: 24 April 2024
Orbit: 1502 x 1682 km, 47.2° (Epoch: 24 May)

Event Time Altitude Azimuth Distance (km) Brightness Sun altitude
Rises 22:55:57 0° 277° (W) 4,895 10.7 -20.1°
Reaches altitude 10° 22:59:10 10° 274° (W) 3,887 10.1 -20.3°
Maximum altitude 23:08:51 61° 198° (SSW) 1,779 7.6 -21.1°
Enters shadow 23:14:10 29° 130° (SE) 2,589 8.2 -21.4°
Drops below altitude 10° 23:18:08 10° 121° (ESE) 3,741 - -21.7°
Sets 23:21:11 0° 118° (ESE) 4,701 - -21.9°
